Skip Page Navigation
NASA JPL Caltech
NASA Logo - Jet Propulsion Laboratory + View the NASA Portal
+ Center for Near-Earth Object Studies
JPL Home Earth Solar System Stars & Galaxies Technology
JPL Solar System Dynamics
BODIES ORBITS EPHEMERIDES TOOLS PHYSICAL DATA DISCOVERY FAQ SITE MAP
IMPORTANT: The SSD Announcement email list is now available. Major changes are coming in the near future, including possible hostname and/or URL changes. To be notified of such changes, subscribe to this email list.

Please visit this page for more details.


JPL Small-Body Database Browser
Search: [ help ]  
392043 (2009 BY92)
Classification: Main-belt Asteroid          SPK-ID: 2392043
Ephemeris | Orbit Diagram | Orbital Elements | Mission Design | Physical Parameters | Discovery Circumstances | Close-Approach Data ]

[ show orbit diagram ]
Orbital Elements at Epoch 2458600.5 (2019-Apr-27.0) TDB
Reference: JPL 11 (heliocentric ecliptic J2000)
 Element Value Uncertainty (1-sigma)   Units 
e .02961099887440203 1.1632e-07  
a 2.805887952885054 4.2163e-08 au
q 2.722802807870476 3.4224e-07 au
i 5.817805766582826 1.0223e-05 deg
node 320.2721439010965 9.0817e-05 deg
peri 49.16655819069362 0.00014638 deg
M 191.9580166384512 0.00011586 deg
tp 2459401.844409585954
(2021-Jul-06.34440959)
0.00055869 TDB
period 1716.737577598445
4.70
3.8695e-05
1.059e-07
d
yr
n .2097000757119828 4.7267e-09 deg/d
Q 2.888973097899631 4.3412e-08 au
  Orbit Determination Parameters
   # obs. used (total)      100  
   data-arc span      5618 days (15.38 yr)  
   first obs. used      2003-12-21  
   last obs. used      2019-05-09  
   planetary ephem.      DE431  
   SB-pert. ephem.      SB431-N16  
   condition code      0  
   norm. resid. RMS      .68073  
   source      ORB  
   producer      Otto Matic  
   solution date      2019-May-30 09:55:15  

Additional Information
 Earth MOID = 1.72256 au 
 Jupiter MOID = 2.26067 au 
 T_jup = 3.315 
[ show covariance matrix ]

Ephemeris | Orbit Diagram | Orbital Elements | Mission Design | Physical Parameters | Discovery Circumstances | Close-Approach Data ]

Physical Parameter Table
Parameter Symbol Value Units Sigma Reference Notes
absolute magnitude H 16.8   n/a MPO434450  

392043 (2009 BY92)          Discovered 2003-Dec-21 by Spacewatch at Kitt Peak
Reference: Last Updated: 2014-04-17

[ show close-approach data ]
Ephemeris | Orbit Diagram | Orbital Elements | Mission Design | Physical Parameters | Discovery Circumstances | Close-Approach Data ]
ABOUT SSD CREDITS/AWARDS PRIVACY/COPYRIGHT GLOSSARY LINKS
FirstGov
(server date/time)  
NASA Home Page
Site Manager:   Ryan S. Park
Webmaster  Alan B. Chamberlin